Newton, KS

8:18 AM CST on December 08, 2019 (GMT -0600)
Newton City County

Weather History for KEWK - October, 2019

Change the Weather History Date:

Saturday, October 12, 2019

  Actual Average Record
Temperature  
Mean Temperature 50 °F -  
Max Temperature 66 °F 66 °F 84 °F (1999)
Min Temperature 33 °F 45 °F 33 °F (2019)
Degree Days  
Heating Degree Days 16    
Moisture  
Dew Point 28 °F    
Average Humidity 48    
Maximum Humidity 70    
Minimum Humidity 24    
Precipitation  
Precipitation 0.00 in - - ()
Sea Level Pressure  
Sea Level Pressure 30.06 in    
Wind  
Wind Speed 12 mph (SW)    
Max Wind Speed 26 mph    
Max Gust Speed 36 mph    
Visibility 9 miles    
Events      
Averages and records for this station are not official NWS values.
T = Trace of Precipitation, MM = Missing Value Source: NWS Daily Summary

Daily Weather History Graph

Daily Weather History Graph

Search for Another Location

Airport or City:

Astronomy

Oct. 12, 2019 Rise Set
Actual Time 7:34 AM CDT 6:55 PM CDT
Civil Twilight 7:08 AM CDT 7:22 PM CDT
Nautical Twilight 6:37 AM CDT 7:52 PM CDT
Astronomical Twilight 6:07 AM CDT 8:23 PM CDT
Moon 6:50 PM CDT (10/12) 6:15 AM CDT (10/12)
Length of Visible Light 12h 14m
Length of Day
11h 21m
Waxing Gibbous, 99% of the Moon is Illuminated
Oct 12
Waxing Gibbous
Oct 13
Full
Oct 21
Last Quarter
Oct 27
New
Nov 4
First Quarter

Hourly Weather History & Observations

Time (CDT) Temp. Windchill Dew Point Humidity Pressure Visibility Wind Dir Wind Speed Gust Speed Precip Events Conditions
12:56 AM 34.0 °F 28.8 °F 23.0 °F 64% 30.23 in 10.0 mi SSW 5.8 mph 16.1 mph N/A   Clear
2:56 AM 33.1 °F 25.5 °F 24.1 °F 70% 30.21 in 10.0 mi SW 9.2 mph - N/A   Clear
3:56 AM 34.0 °F 26.6 °F 23.0 °F 64% 30.20 in 10.0 mi SW 9.2 mph - N/A   Clear
4:56 AM 34.0 °F 26.6 °F 23.0 °F 64% 30.18 in 10.0 mi SSW 9.2 mph - N/A   Clear
5:56 AM 34.0 °F 26.0 °F 25.0 °F 70% 30.17 in 10.0 mi SSW 10.4 mph - N/A   Clear
6:56 AM 35.1 °F 26.9 °F 25.0 °F 67% 30.16 in 10.0 mi SSW 11.5 mph - N/A   Clear
7:56 AM 36.0 °F 27.5 °F 26.1 °F 67% 30.14 in 10.0 mi SSW 12.7 mph - N/A   Clear
8:56 AM 42.1 °F 34.9 °F 28.0 °F 58% 30.13 in 10.0 mi SW 13.8 mph - N/A   Clear
9:56 AM 46.9 °F - 30.0 °F 52% 30.12 in 10.0 mi SW 18.4 mph - N/A   Clear
10:56 AM 54.0 °F - 30.0 °F 40% 30.11 in 10.0 mi SW 13.8 mph - N/A   Clear
11:56 AM 59.0 °F - 33.1 °F 38% 30.08 in 10.0 mi SSW 18.4 mph - N/A   Clear
12:56 PM 63.0 °F - 33.1 °F 33% 30.05 in 10.0 mi SSW 21.9 mph 26.5 mph N/A   Clear
1:56 PM 64.9 °F - 32.0 °F 29% 30.02 in 10.0 mi SW 20.7 mph 27.6 mph N/A   Clear
2:56 PM 64.9 °F - 30.0 °F 27% 29.98 in 10.0 mi SW 25.3 mph 35.7 mph N/A   Clear
3:56 PM 66.9 °F - 28.9 °F 24% 29.95 in 10.0 mi SW 26.5 mph 32.2 mph N/A   Clear
5:56 PM 64.9 °F - 28.0 °F 25% 29.92 in 10.0 mi SSW 19.6 mph 29.9 mph N/A   Clear
6:56 PM 60.1 °F - 27.0 °F 28% 29.93 in 5.0 mi SSW 15.0 mph - N/A   Haze
7:56 PM 54.0 °F - 30.9 °F 41% 29.94 in 10.0 mi South 12.7 mph - N/A   Clear
8:56 PM 51.1 °F - 30.9 °F 46% 29.94 in 10.0 mi South 10.4 mph - N/A   Clear
9:56 PM 52.0 °F - 30.0 °F 43% 29.94 in 10.0 mi SSW 13.8 mph - N/A   Clear
10:56 PM 48.0 °F - 30.9 °F 52% 29.96 in 5.0 mi West 5.8 mph - N/A   Haze
11:56 PM 46.9 °F - 30.9 °F 54% 29.95 in 6.0 mi WSW 5.8 mph - N/A   Haze